Wind_Speed
49 50 50 50 53 55 54 53 53 53 52 52 52 52 54 55 53 52 49 46 42 39 36 33 31 29 26 24 22 20 19 18 17 16 15 14 13 12 10 9 8 7 6 5 4 4 3 3 3
51 52 52 54 56 58 56 55 56 54 53 53 53 54 55 56 55 53 51 48 45 42 39 36 33 31 29 26 24 22 21 20 19 18 17 15 14 13 12 10 9 8 7 6 6 5 4 4 4
53 54 55 57 59 58 56 57 57 56 54 54 55 57 58 58 56 55 52 50 47 44 42 39 36 33 31 28 26 24 22 21 20 20 18 17 16 15 13 12 10 9 8 8 7 6 5 5 5
54 56 58 61 61 58 57 58 59 57 56 56 57 59 60 59 58 56 54 52 50 47 44 41 39 36 33 31 29 27 25 23 22 21 20 18 17 16 15 13 12 11 10 9 8 7 7 6 6
56 57 59 62 61 58 58 58 59 57 55 56 59 61 60 60 59 58 56 54 52 50 47 44 41 38 36 33 31 29 27 25 24 23 22 20 19 18 16 14 13 12 11 10 9 9 8 8 8
57 58 60 61 59 57 58 57 58 57 56 57 59 62 61 61 60 59 57 56 55 52 50 47 44 41 38 36 33 31 29 27 26 25 23 22 20 19 18 16 15 14 13 12 11 10 10 9 9
56 57 58 58 58 57 56 55 56 55 56 57 59 62 63 61 62 61 59 57 56 54 52 50 47 44 41 38 36 33 31 29 28 27 25 24 22 21 20 18 17 16 14 13 13 12 11 11 10
54 56 56 55 55 55 53 53 54 55 56 57 60 63 63 62 62 63 60 59 57 56 54 52 50 47 44 41 38 35 33 32 30 29 28 26 24 23 21 20 19 17 16 15 15 14 13 13 12
52 54 53 51 51 51 52 53 53 54 56 58 60 63 62 63 62 63 62 59 57 57 56 54 52 49 46 44 41 38 36 34 32 31 30 28 26 24 23 22 21 19 18 17 16 16 15 15 14
48 51 49 47 47 48 50 52 52 53 56 58 60 62 63 62 62 63 64 61 58 56 56 55 54 52 49 46 43 40 38 36 34 32 31 29 28 26 24 23 22 21 20 19 18 18 17 17 16
44 44 43 43 45 46 48 50 51 54 55 56 58 60 62 62 62 61 62 60 59 57 55 55 55 53 50 47 44 42 39 37 36 34 33 31 29 27 26 25 24 23 22 21 20 19 19 19 18
39 37 37 38 41 43 45 47 50 51 53 55 58 60 61 60 63 61 59 57 55 56 55 55 54 53 51 49 46 43 41 39 37 36 34 33 31 29 28 27 25 24 23 22 22 21 21 21 20
31 30 31 33 36 40 43 45 48 49 51 54 56 59 60 62 61 60 57 57 56 55 54 56 54 53 52 50 48 45 42 40 39 37 35 34 33 31 29 28 27 26 25 24 24 23 23 22 22
24 25 27 28 29 35 41 43 46 46 48 51 53 57 59 61 60 56 54 55 54 54 53 55 54 54 53 51 49 46 44 42 41 39 37 36 34 32 31 29 28 28 26 26 25 25 25 25 24
21 22 23 25 26 29 35 40 42 43 46 49 51 54 58 60 59 57 52 51 52 51 51 54 54 54 54 53 51 49 47 45 43 41 39 38 36 34 33 31 30 29 28 27 27 27 27 26 26
18 19 20 21 23 26 32 34 36 41 43 46 50 53 56 58 56 55 52 50 50 47 48 51 52 52 54 54 53 50 49 47 45 43 41 40 38 36 34 33 32 30 29 29 29 29 28 28 28
14 16 17 20 21 23 27 29 35 39 42 44 47 51 54 54 53 51 49 45 47 45 45 47 51 50 51 53 55 53 51 49 47 45 43 42 40 38 36 34 33 32 31 31 31 30 29 29 29
12 13 14 16 19 20 23 26 33 37 40 43 46 49 52 51 50 48 46 44 43 43 42 46 48 49 49 51 54 54 52 50 49 47 45 44 41 39 37 35 34 33 33 32 32 31 31 31 31
8 9 10 13 15 17 19 25 31 34 37 41 44 48 50 48 47 47 44 44 41 39 40 44 47 48 49 49 50 50 50 50 48 46 45 44 42 40 37 37 36 35 34 34 33 33 33 32 32
4 5 8 10 11 12 14 22 28 31 34 38 42 45 47 48 49 46 43 44 42 39 40 43 44 46 46 48 46 45 47 47 47 46 45 44 43 40 38 37 37 37 37 36 35 35 34 34 34
4 4 6 8 9 10 13 17 23 27 32 36 38 41 43 46 48 45 41 41 41 38 37 40 43 43 43 44 43 43 45 46 46 46 45 44 43 41 40 40 40 39 37 36 36 36 35 35 35
5 4 4 6 7 9 12 14 20 20 26 32 36 38 39 41 44 42 40 38 38 37 37 39 39 40 41 43 44 42 43 44 45 46 45 45 44 43 41 40 40 39 37 36 36 36 36 36 34
6 5 5 6 6 6 10 12 17 17 20 27 33 35 36 37 40 39 37 35 34 35 35 37 39 39 41 43 43 42 41 41 42 44 43 42 42 43 42 41 40 39 37 36 36 36 34 33 33
7 7 8 7 6 6 9 12 15 15 17 23 29 32 33 35 35 35 33 33 32 32 34 35 34 34 35 38 39 41 41 41 40 40 40 39 40 41 40 40 40 39 38 37 37 36 34 33 34
10 10 10 8 8 8 9 10 12 13 15 19 24 28 30 32 32 31 30 29 29 28 30 32 31 31 31 33 34 35 36 38 37 38 39 39 40 40 41 41 40 39 37 37 36 36 35 34 35
12 12 12 11 10 10 11 10 11 12 13 15 18 22 26 27 29 30 28 27 28 27 27 28 29 29 30 31 31 32 33 34 35 35 36 36 36 36 37 37 37 37 37 36 36 35 35 36 37
13 13 13 14 13 13 13 11 11 11 11 12 15 17 20 22 24 26 27 27 27 28 28 28 27 28 28 29 29 30 33 34 35 36 36 36 35 35 36 36 36 37 38 38 37 37 38 39 40
13 13 14 15 16 15 13 12 11 11 10 10 13 15 17 18 20 22 23 24 24 25 26 28 29 29 28 28 29 30 30 32 33 34 34 34 34 34 35 36 37 37 38 39 40 41 41 42 43
12 13 14 14 14 14 14 13 12 12 10 9 10 13 15 15 16 17 20 23 24 25 25 27 28 29 30 30 31 32 32 32 33 34 34 35 35 36 36 37 37 38 40 41 42 42 44 44 44
12 12 13 14 14 12 12 12 12 11 10 9 9 11 12 13 14 16 18 20 22 25 26 28 29 30 31 31 32 33 34 35 36 37 37 37 38 38 40 41 41 41 42 43 43 44 45 46 46
Wind_Direction
273 272 270 266 263 262 261 260 257 254 251 246 242 237 234 232 230 229 229 228 227 227 227 227 227 227 227 227 226 224 223 224 226 227 228 230 231 230 231 235 237 239 241 245 254 260 263 270 279
272 271 268 265 263 262 262 260 258 254 250 245 240 236 233 231 230 229 228 227 226 226 226 225 226 226 226 226 226 224 223 224 225 227 229 231 231 230 231 233 236 238 241 245 250 256 261 267 271
271 269 268 266 264 263 263 260 257 254 249 243 238 235 232 230 228 228 227 226 226 225 225 224 225 225 225 225 225 224 223 225 226 228 229 231 231 231 231 233 235 237 240 245 247 251 258 264 268
271 270 267 265 265 265 262 259 257 252 247 241 236 233 231 228 227 226 225 225 225 225 224 224 224 224 224 224 224 224 224 225 227 228 229 230 231 231 232 234 235 236 240 244 247 249 254 260 263
271 269 267 266 266 264 261 257 255 251 245 239 234 231 229 227 225 224 223 223 224 224 224 223 223 223 223 223 223 223 223 225 227 228 229 230 230 231 232 233 235 237 240 243 247 250 254 258 261
271 269 267 267 266 263 260 255 252 248 242 236 232 229 227 225 223 222 221 221 222 222 222 222 222 222 222 222 222 222 223 225 227 228 228 229 230 231 231 233 235 238 241 244 247 251 255 259 261
271 269 268 267 264 261 257 253 249 244 239 234 230 228 225 222 221 220 219 218 219 220 221 221 221 221 221 221 221 221 222 224 227 229 228 229 230 232 232 233 236 239 242 245 247 250 253 257 260
271 269 268 265 262 259 254 249 245 240 236 231 228 226 223 220 219 219 218 216 216 218 220 220 220 220 221 220 220 221 222 224 226 229 229 229 230 231 233 235 237 239 242 244 247 250 253 256 258
271 268 267 265 260 256 249 244 240 237 233 228 225 223 222 219 217 216 215 215 215 216 218 218 219 219 220 220 220 221 222 224 226 229 230 229 230 231 233 236 238 240 242 244 247 249 252 255 257
272 270 267 261 256 251 245 240 236 232 230 226 224 221 220 219 216 215 214 213 213 213 215 216 217 218 219 219 220 220 222 223 226 228 229 230 229 231 233 236 238 240 242 244 246 249 251 254 256
272 269 264 256 251 247 242 235 232 229 226 224 222 219 218 217 216 215 214 212 211 212 213 214 215 216 218 218 219 220 221 223 225 227 228 229 230 232 234 236 238 239 242 244 246 249 252 254 256
269 266 259 253 247 243 238 232 229 227 224 220 219 216 215 214 215 215 212 210 210 211 213 210 212 214 215 216 217 219 220 222 224 226 227 229 230 231 233 235 237 239 241 243 245 248 251 253 255
268 264 257 251 245 240 235 230 227 224 221 218 217 214 213 212 211 213 212 211 211 212 213 208 209 211 212 214 215 216 218 220 222 223 226 227 228 230 232 234 237 239 241 243 245 248 250 252 255
269 263 255 249 244 237 231 227 224 219 217 215 213 212 211 210 211 209 209 209 209 212 212 210 209 209 210 211 213 214 215 218 220 222 224 225 227 230 231 234 237 239 241 243 245 247 250 252 255
268 261 254 245 240 232 228 224 220 215 213 213 211 210 210 210 211 209 208 206 207 210 210 210 210 209 209 210 211 212 214 216 218 220 223 225 227 229 232 234 236 239 241 243 245 248 250 253 256
265 259 250 241 236 229 225 221 214 212 211 210 209 209 209 210 211 211 210 209 208 210 209 210 210 208 208 210 210 211 213 215 217 219 222 225 227 229 232 235 237 239 242 244 247 250 253 256 258
266 259 249 240 232 228 223 218 209 207 208 207 206 207 207 207 208 209 210 209 209 209 209 210 211 208 208 210 211 210 212 215 217 220 222 224 226 229 232 235 237 240 244 246 249 251 253 257 260
270 257 245 234 226 225 221 214 207 205 207 207 206 205 206 207 207 208 210 209 208 208 207 208 209 209 209 212 213 213 214 216 219 221 223 225 227 230 232 235 239 243 246 248 249 252 256 259 261
265 249 236 220 220 218 216 211 204 204 205 207 206 205 205 207 207 206 207 206 204 205 206 207 209 210 211 213 215 217 217 219 220 223 225 228 230 232 234 238 241 244 246 249 251 255 258 260 263
238 227 214 209 215 211 209 205 203 204 202 205 207 206 206 208 208 205 204 204 204 203 203 205 206 210 214 216 217 219 220 221 222 224 227 230 232 233 236 240 243 245 247 250 253 255 258 262 264
167 188 201 205 201 200 197 196 199 201 202 203 205 204 206 208 209 209 207 207 204 204 206 208 210 211 215 217 219 220 222 223 224 227 229 232 233 235 238 240 244 246 249 252 254 256 259 262 264
133 145 164 179 179 187 191 194 194 198 201 203 204 204 206 208 209 210 212 211 209 208 207 208 211 215 216 217 218 221 223 225 228 231 232 235 237 237 238 240 244 247 249 252 254 256 260 263 263
119 119 128 145 150 174 188 191 192 193 197 200 203 203 205 207 210 212 213 214 214 211 210 211 213 217 218 219 223 223 224 226 230 233 234 236 238 239 240 242 245 247 249 252 255 257 260 263 267
110 112 116 118 125 144 170 175 177 181 190 196 203 206 208 208 212 215 217 219 218 219 221 220 222 223 224 224 227 228 229 230 232 233 235 238 242 243 244 246 248 250 252 254 257 259 262 266 270
108 112 114 119 120 123 147 155 164 176 186 195 201 206 209 212 216 219 220 221 221 225 227 227 229 231 231 233 233 232 233 234 236 237 240 244 247 248 250 251 252 252 255 257 258 261 265 269 272
109 113 115 118 116 118 134 141 155 166 176 190 198 204 209 214 218 221 223 224 227 231 233 233 234 239 240 241 242 242 241 243 244 244 246 250 250 251 252 254 253 253 255 258 261 263 267 271 274
110 112 113 111 112 114 122 131 146 160 166 180 192 200 206 210 216 221 224 226 231 235 237 239 242 243 242 243 247 247 246 247 249 249 251 253 255 254 255 256 258 257 259 261 262 266 270 273 276
109 115 116 115 114 115 118 123 135 144 152 166 181 193 202 211 215 222 226 229 235 239 242 245 247 248 248 248 248 251 253 253 253 253 255 257 257 256 257 258 258 259 260 262 266 270 273 275 276
118 119 122 118 120 124 125 125 128 138 145 155 172 187 198 211 222 228 230 232 237 242 247 249 251 254 255 256 257 259 261 261 261 261 262 262 261 260 259 260 261 262 263 266 269 271 272 273 275
124 125 125 122 122 123 127 133 134 140 149 157 170 184 199 212 225 237 242 243 244 247 250 252 254 257 258 259 260 260 261 262 263 263 263 262 261 262 262 262 264 264 265 267 269 270 272 272 274
Height
5776 5776 5776 5776 5776 5777 5779 5784 5787 5792 5796 5800 5805 5810 5815 5820 5827 5833 5837 5842 5846 5850 5854 5857 5860 5863 5865 5867 5869 5870 5871 5872 5874 5874 5875 5876 5876 5877 5877 5878 5878 5878 5878 5878 5878 5878 5878 5878 5878
5765 5764 5764 5764 5764 5764 5768 5773 5775 5781 5786 5790 5795 5800 5805 5811 5817 5823 5829 5835 5839 5844 5848 5852 5855 5858 5860 5863 5865 5867 5868 5870 5871 5872 5873 5874 5874 5875 5875 5876 5876 5876 5877 5877 5877 5877 5877 5877 5877
5752 5751 5751 5750 5751 5754 5760 5761 5765 5769 5774 5779 5784 5789 5795 5802 5809 5815 5822 5827 5833 5838 5842 5846 5850 5853 5856 5858 5861 5863 5865 5866 5868 5869 5870 5871 5872 5873 5873 5874 5874 5875 5875 5875 5875 5875 5875 5875 5875
5739 5737 5737 5737 5738 5744 5748 5750 5751 5756 5761 5766 5772 5777 5784 5792 5800 5807 5814 5820 5826 5831 5836 5840 5844 5848 5851 5854 5856 5859 5861 5863 5864 5866 5867 5868 5869 5870 5871 5871 5872 5872 5873 5873 5873 5873 5873 5873 5873
5723 5723 5722 5722 5727 5731 5733 5737 5737 5742 5749 5755 5760 5766 5774 5783 5790 5798 5805 5812 5818 5824 5829 5834 5838 5842 5846 5849 5852 5854 5857 5859 5861 5862 5864 5865 5866 5867 5868 5869 5870 5870 5871 5871 5871 5872 5872 5872 5872
5709 5707 5707 5709 5713 5717 5719 5722 5725 5729 5736 5742 5748 5755 5764 5772 5780 5788 5795 5803 5809 5816 5821 5826 5831 5836 5840 5844 5847 5850 5852 5855 5857 5859 5860 5861 5863 5864 5865 5866 5867 5867 5868 5869 5869 5869 5870 5870 5870
5695 5693 5693 5696 5698 5701 5705 5708 5711 5717 5723 5730 5736 5743 5753 5761 5770 5778 5786 5793 5800 5807 5813 5819 5824 5829 5833 5837 5841 5844 5847 5850 5853 5855 5856 5858 5859 5860 5862 5863 5864 5864 5865 5866 5866 5867 5867 5867 5867
5678 5678 5678 5680 5683 5687 5692 5693 5698 5703 5710 5718 5723 5731 5742 5751 5760 5768 5776 5783 5791 5798 5804 5810 5816 5822 5827 5831 5835 5839 5842 5845 5848 5850 5852 5854 5855 5856 5858 5859 5860 5861 5862 5863 5863 5864 5864 5865 5865
5662 5663 5664 5666 5669 5673 5677 5679 5685 5690 5697 5704 5711 5721 5731 5740 5749 5757 5766 5774 5781 5789 5795 5802 5808 5814 5819 5824 5829 5833 5836 5839 5842 5845 5847 5849 5851 5852 5854 5855 5857 5858 5859 5859 5860 5861 5861 5862 5862
5648 5648 5651 5653 5654 5658 5662 5666 5672 5677 5684 5693 5701 5711 5721 5730 5739 5748 5757 5766 5773 5780 5787 5793 5800 5806 5812 5817 5822 5826 5830 5834 5837 5840 5842 5845 5846 5848 5850 5851 5852 5854 5855 5856 5857 5857 5858 5858 5859
5634 5635 5637 5637 5640 5643 5648 5654 5659 5664 5673 5683 5692 5703 5712 5720 5729 5737 5747 5756 5765 5771 5777 5784 5791 5798 5804 5810 5815 5820 5824 5828 5831 5834 5837 5840 5842 5843 5845 5847 5848 5849 5850 5851 5852 5853 5854 5854 5855
5623 5623 5624 5626 5628 5631 5636 5642 5648 5653 5664 5673 5682 5692 5700 5709 5719 5729 5738 5746 5754 5761 5768 5774 5782 5789 5796 5802 5808 5813 5818 5822 5826 5829 5832 5834 5836 5838 5840 5842 5843 5845 5846 5847 5848 5849 5850 5850 5851
5613 5614 5614 5615 5617 5621 5625 5631 5637 5644 5655 5664 5672 5682 5692 5700 5711 5721 5729 5737 5745 5753 5760 5766 5773 5781 5788 5795 5801 5806 5811 5816 5819 5823 5826 5828 5831 5833 5835 5837 5838 5840 5841 5842 5843 5844 5845 5846 5846
5606 5606 5606 5607 5609 5612 5616 5622 5628 5638 5646 5654 5664 5674 5683 5692 5702 5711 5721 5729 5737 5746 5753 5759 5766 5773 5780 5787 5793 5799 5804 5809 5813 5816 5819 5822 5825 5827 5830 5832 5833 5835 5836 5837 5838 5839 5840 5841 5841
5600 5600 5600 5600 5601 5604 5608 5614 5622 5632 5638 5647 5656 5666 5675 5685 5694 5703 5712 5721 5730 5739 5746 5753 5759 5765 5772 5779 5785 5791 5796 5801 5806 5809 5813 5816 5819 5821 5824 5826 5828 5829 5831 5832 5833 5834 5835 5835 5836
5595 5595 5595 5596 5596 5598 5603 5609 5617 5624 5631 5640 5649 5658 5668 5678 5688 5696 5706 5715 5724 5731 5738 5745 5752 5758 5764 5771 5777 5783 5789 5794 5798 5802 5806 5809 5812 5815 5818 5820 5822 5824 5825 5826 5827 5828 5829 5830 5830
5591 5591 5591 5592 5593 5595 5599 5605 5612 5619 5626 5634 5643 5652 5662 5671 5682 5691 5700 5709 5718 5725 5732 5740 5746 5752 5758 5764 5770 5775 5781 5786 5791 5795 5799 5802 5806 5808 5811 5813 5816 5817 5819 5820 5821 5822 5823 5824 5825
5590 5589 5589 5589 5591 5593 5597 5602 5609 5614 5622 5630 5638 5648 5657 5666 5677 5685 5695 5703 5712 5720 5726 5733 5741 5747 5752 5757 5763 5768 5774 5778 5783 5788 5792 5795 5799 5802 5804 5807 5809 5811 5813 5814 5815 5816 5817 5818 5818
5588 5588 5588 5588 5590 5592 5596 5600 5606 5612 5619 5628 5636 5644 5653 5663 5672 5681 5689 5698 5706 5714 5721 5727 5734 5741 5746 5752 5757 5763 5768 5772 5777 5781 5785 5789 5792 5795 5798 5800 5803 5804 5806 5807 5808 5810 5811 5811 5812
5588 5588 5589 5590 5591 5593 5596 5600 5605 5611 5618 5626 5633 5641 5650 5659 5668 5677 5686 5694 5702 5710 5716 5722 5729 5735 5741 5747 5753 5758 5762 5766 5771 5774 5778 5782 5785 5788 5791 5793 5796 5797 5799 5800 5801 5802 5803 5804 5804
5589 5590 5591 5592 5593 5595 5598 5602 5606 5612 5618 5625 5631 5639 5648 5656 5664 5673 5682 5690 5697 5704 5711 5717 5724 5730 5736 5741 5747 5751 5755 5759 5763 5767 5771 5774 5777 5780 5783 5785 5788 5790 5791 5793 5794 5795 5795 5796 5796
5591 5592 5593 5594 5596 5598 5602 5605 5609 5613 5619 5625 5631 5638 5647 5654 5662 5671 5678 5686 5692 5699 5706 5713 5719 5725 5731 5736 5741 5745 5749 5753 5757 5760 5764 5767 5770 5773 5775 5778 5780 5782 5784 5785 5786 5787 5788 5788 5788
5594 5594 5596 5597 5599 5601 5604 5607 5611 5614 5619 5624 5631 5638 5646 5653 5661 5668 5675 5682 5688 5695 5701 5707 5713 5719 5725 5730 5735 5739 5743 5747 5750 5753 5757 5760 5762 5765 5767 5770 5772 5774 5775 5777 5778 5779 5779 5780 5780
5596 5597 5599 5600 5602 5605 5607 5610 5613 5617 5620 5625 5631 5638 5645 5653 5659 5666 5673 5679 5685 5691 5696 5702 5708 5713 5718 5723 5728 5732 5736 5740 5743 5746 5750 5752 5754 5756 5759 5761 5764 5765 5767 5768 5769 5770 5771 5771 5772
5599 5601 5602 5603 5605 5607 5609 5612 5616 5619 5623 5628 5633 5639 5646 5652 5659 5665 5671 5677 5682 5688 5693 5698 5704 5708 5712 5717 5721 5725 5729 5732 5735 5739 5742 5744 5746 5748 5751 5753 5755 5757 5758 5759 5760 5761 5762 5762 5763
5601 5603 5605 5607 5608 5609 5612 5615 5619 5622 5626 5630 5635 5640 5647 5653 5659 5664 5670 5674 5679 5684 5689 5694 5699 5703 5707 5711 5715 5718 5721 5725 5728 5731 5733 5736 5738 5740 5742 5744 5746 5748 5749 5750 5751 5752 5752 5753 5753
5604 5605 5607 5609 5611 5613 5615 5618 5621 5624 5628 5632 5636 5641 5647 5652 5658 5663 5667 5672 5677 5681 5686 5690 5694 5698 5701 5705 5709 5711 5714 5717 5719 5722 5724 5727 5729 5731 5733 5735 5737 5738 5740 5741 5742 5742 5743 5743 5743
5607 5608 5610 5612 5614 5616 5619 5621 5624 5627 5630 5634 5638 5642 5647 5652 5657 5662 5666 5670 5674 5678 5682 5686 5689 5693 5696 5699 5702 5704 5707 5709 5711 5714 5716 5718 5720 5722 5724 5726 5727 5728 5729 5730 5731 5732 5732 5733 5733
5610 5612 5613 5614 5616 5619 5621 5626 5626 5629 5633 5636 5640 5644 5648 5652 5656 5660 5664 5668 5671 5675 5678 5681 5684 5687 5690 5692 5695 5697 5699 5701 5703 5705 5707 5709 5711 5713 5715 5716 5717 5719 5719 5720 5720 5721 5721 5722 5721
5612 5614 5615 5617 5619 5622 5624 5629 5628 5631 5634 5637 5640 5644 5648 5652 5656 5659 5662 5665 5668 5671 5674 5677 5679 5681 5684 5686 5688 5690 5691 5693 5695 5696 5698 5700 5702 5703 5705 5706 5707 5708 5708 5709 5709 5709 5709 5709 5709